Location: *
(49.0044°N, 9.5056°E)
Time: 10:59:49
(UTC+00:00)

Meteor 1-22 Rocket - Pass Details

Date: 22 September 2019
Orbit: 786 x 942 km, 81.2° (Epoch: 18 October)

Event Time Altitude Azimuth Distance (km) Brightness Sun altitude
Rises 19:32:28 0° 189° (S) 3,575 7.3 -21.6°
Reaches altitude 10° 19:34:56 10° 190° (S) 2,644 6.6 -22.0°
Maximum altitude 19:41:02 90° 278° (W) 949 4.3 -22.9°
Drops below altitude 10° 19:47:11 10° 12° (NNE) 2,657 7.0 -23.7°
Sets 19:49:40 0° 13° (NNE) 3,594 7.7 -24.1°
